| time (UTC) | temp F | wind direction | speed MPH | gust MPH | rain 1hr in | rain 24hr in | rain mn in | humidity % | barometer mb |
| 20260505170609 | 57 | 337 | 6.0 | 9.0 | 0.00 | 0.00 | 0.00 | 68 | 1011.8 |
| 20260505165604 | 57 | 331 | 6.0 | 9.0 | 0.00 | 0.00 | 0.00 | 67 | 1011.9 |
| 20260505164520 | 57 | 329 | 3.0 | 6.0 | 0.00 | 0.00 | 0.00 | 66 | 1011.8 |
| 20260505163516 | 58 | 332 | 4.0 | 8.0 | 0.00 | 0.00 | 0.00 | 65 | 1011.8 |
| 20260505162611 | 57 | 338 | 3.0 | 6.0 | 0.00 | 0.00 | 0.00 | 65 | 1011.8 |
| 20260505161527 | 57 | 329 | 4.0 | 7.0 | 0.00 | 0.00 | 0.00 | 64 | 1011.8 |
| 20260505160603 | 57 | 337 | 3.0 | 6.0 | 0.00 | 0.00 | 0.00 | 65 | 1011.9 |
| 20260505152526 | 57 | 333 | 4.0 | 7.0 | 0.00 | 0.00 | 0.00 | 66 | 1011.9 |
| 20260505151522 | 57 | 340 | 3.0 | 7.0 | 0.00 | 0.00 | 0.00 | 65 | 1012.0 |
| 20260505150518 | 57 | 353 | 2.0 | 4.0 | 0.00 | 0.00 | 0.00 | 65 | 1012.1 |
| 20260505140614 | 58 | 349 | 6.0 | 9.0 | 0.00 | 0.00 | 0.00 | 62 | 1012.1 |
| 20260505124521 | 57 | 333 | 5.0 | 11.0 | 0.00 | 0.00 | 0.00 | 68 | 1012.5 |
| 20260505123517 | 57 | 322 | 4.0 | 9.0 | 0.00 | 0.00 | 0.00 | 68 | 1012.5 |
| 20260505122533 | 57 | 345 | 4.0 | 9.0 | 0.00 | 0.00 | 0.00 | 66 | 1012.6 |
| 20260505121529 | 56 | 342 | 4.0 | 7.0 | 0.00 | 0.00 | 0.00 | 68 | 1012.6 |
| 20260505120525 | 56 | 359 | 5.0 | 9.0 | 0.00 | 0.00 | 0.00 | 68 | 1012.6 |
| 20260505115520 | 56 | 351 | 4.0 | 8.0 | 0.00 | 0.00 | 0.00 | 69 | 1012.7 |
| 20260505114517 | 55 | 349 | 4.0 | 9.0 | 0.00 | 0.00 | 0.00 | 71 | 1012.7 |
| 20260505113533 | 54 | 8 | 5.0 | 8.0 | 0.00 | 0.00 | 0.00 | 73 | 1012.8 |
| 20260505112528 | 54 | 27 | 5.0 | 9.0 | 0.00 | 0.00 | 0.00 | 74 | 1012.8 |
| 20260505111603 | 54 | 45 | 6.0 | 13.0 | 0.00 | 0.00 | 0.00 | 74 | 1013.0 |
| 20260505110520 | 55 | 36 | 8.0 | 13.0 | 0.00 | 0.00 | 0.00 | 73 | 1012.9 |
| 20260505101519 | 53 | 358 | 4.0 | 10.0 | 0.00 | 0.00 | 0.00 | 78 | 1013.0 |
| 20260505100536 | 53 | 8 | 4.0 | 9.0 | 0.00 | 0.00 | 0.00 | 78 | 1013.0 |
| 20260505095531 | 53 | 332 | 6.0 | 9.0 | 0.00 | 0.00 | 0.00 | 78 | 1013.1 |
| 20260505094607 | 53 | 333 | 4.0 | 8.0 | 0.00 | 0.00 | 0.00 | 79 | 1013.2 |
| 20260505093523 | 53 | 10 | 5.0 | 10.0 | 0.00 | 0.00 | 0.00 | 77 | 1013.2 |
| 20260505092519 | 52 | 26 | 4.0 | 9.0 | 0.00 | 0.00 | 0.00 | 79 | 1013.2 |
| 20260505091535 | 53 | 14 | 5.0 | 10.0 | 0.00 | 0.00 | 0.00 | 78 | 1013.3 |
| 20260505090531 | 52 | 10 | 5.0 | 9.0 | 0.00 | 0.00 | 0.00 | 79 | 1013.3 |
| 20260505085527 | 52 | 0 | 6.0 | 11.0 | 0.00 | 0.00 | 0.00 | 79 | 1013.3 |
| 20260505084523 | 52 | 6 | 5.0 | 10.0 | 0.00 | 0.00 | 0.00 | 80 | 1013.3 |
| 20260505083518 | 52 | 353 | 6.0 | 10.0 | 0.00 | 0.00 | 0.00 | 80 | 1013.4 |
| 20260505082614 | 52 | 6 | 5.0 | 9.0 | 0.00 | 0.00 | 0.00 | 81 | 1013.3 |
| 20260505081531 | 52 | 16 | 6.0 | 9.0 | 0.00 | 0.00 | 0.00 | 81 | 1013.3 |
| 20260505080606 | 52 | 20 | 5.0 | 9.0 | 0.00 | 0.00 | 0.00 | 80 | 1013.3 |
| 20260505075522 | 53 | 354 | 7.0 | 14.0 | 0.00 | 0.00 | 0.00 | 80 | 1013.3 |
| 20260505074518 | 52 | 357 | 5.0 | 10.0 | 0.00 | 0.00 | 0.00 | 81 | 1013.2 |
| 20260505073533 | 52 | 340 | 5.0 | 11.0 | 0.00 | 0.00 | 0.00 | 84 | 1013.2 |
| 20260505072529 | 52 | 340 | 5.0 | 11.0 | 0.00 | 0.00 | 0.00 | 85 | 1013.2 |
| 20260505071525 | 52 | 340 | 5.0 | 8.0 | 0.00 | 0.00 | 0.00 | 86 | 1013.3 |
| 20260505070521 | 51 | 335 | 4.0 | 7.0 | 0.00 | 0.00 | 0.00 | 87 | 1013.4 |
| 20260505065516 | 51 | 338 | 3.0 | 6.0 | 0.00 | 0.00 | 0.00 | 88 | 1013.4 |
| 20260505064531 | 51 | 342 | 3.0 | 6.0 | 0.00 | 0.00 | 0.00 | 88 | 1013.5 |
| 20260505063528 | 51 | 354 | 3.0 | 6.0 | 0.00 | 0.00 | 0.00 | 88 | 1013.3 |
| 20260505062523 | 51 | 9 | 2.0 | 3.0 | 0.00 | 0.00 | 0.00 | 89 | 1013.3 |
| 20260505061520 | 50 | 9 | 1.0 | 3.0 | 0.00 | 0.00 | 0.00 | 91 | 1013.4 |
| 20260505060535 | 50 | 340 | 3.0 | 8.0 | 0.00 | 0.00 | 0.00 | 92 | 1013.4 |
| 20260505055531 | 49 | 350 | 4.0 | 9.0 | 0.00 | 0.00 | 0.00 | 92 | 1013.3 |
| 20260505054527 | 49 | 341 | 4.0 | 8.0 | 0.00 | 0.00 | 0.00 | 92 | 1013.2 |
| 20260505053523 | 49 | 12 | 3.0 | 6.0 | 0.00 | 0.00 | 0.00 | 92 | 1013.3 |
| 20260505052518 | 49 | 24 | 3.0 | 7.0 | 0.00 | 0.00 | 0.00 | 92 | 1013.3 |
| 20260505051535 | 49 | 352 | 4.0 | 8.0 | 0.00 | 0.00 | 0.00 | 93 | 1013.4 |
| 20260505050530 | 49 | 10 | 3.0 | 6.0 | 0.00 | 0.00 | 0.00 | 93 | 1013.3 |
| 20260505041529 | 49 | 340 | 4.0 | 6.0 | 0.00 | 0.00 | 0.00 | 92 | 1013.6 |
| 20260505040605 | 49 | 333 | 3.0 | 4.0 | 0.00 | 0.00 | 0.00 | 92 | 1013.5 |
| 20260505035601 | 49 | 323 | 2.0 | 2.0 | 0.00 | 0.00 | 0.00 | 91 | 1013.6 |
| 20260505034517 | 50 | 15 | 0.0 | 1.0 | 0.00 | 0.00 | 0.00 | 91 | 1013.5 |
| 20260505033532 | 50 | 340 | 1.0 | 2.0 | 0.00 | 0.00 | 0.00 | 90 | 1013.6 |
| 20260505032528 | 50 | 354 | 1.0 | 2.0 | 0.00 | 0.00 | 0.00 | 90 | 1013.7 |
| 20260505031524 | 50 | 8 | 2.0 | 4.0 | 0.00 | 0.00 | 0.00 | 90 | 1013.7 |
| 20260505030600 | 50 | 345 | 2.0 | 4.0 | 0.00 | 0.00 | 0.00 | 90 | 1013.8 |
| 20260505025516 | 50 | 336 | 4.0 | 7.0 | 0.00 | 0.00 | 0.00 | 89 | 1013.8 |
| 20260505024612 | 50 | 335 | 3.0 | 6.0 | 0.00 | 0.00 | 0.00 | 90 | 1013.8 |
| 20260505023527 | 50 | 345 | 2.0 | 3.0 | 0.00 | 0.00 | 0.00 | 90 | 1013.8 |
| 20260505022523 | 50 | 2 | 1.0 | 3.0 | 0.00 | 0.00 | 0.00 | 89 | 1013.8 |
| 20260505021518 | 51 | 356 | 1.0 | 3.0 | 0.00 | 0.00 | 0.00 | 89 | 1013.7 |
| 20260505020533 | 51 | 360 | 2.0 | 3.0 | 0.00 | 0.00 | 0.00 | 89 | 1013.7 |
| 20260505015530 | 51 | 336 | 3.0 | 4.0 | 0.00 | 0.00 | 0.00 | 89 | 1013.8 |
| 20260505014525 | 51 | 334 | 2.0 | 2.0 | 0.00 | 0.00 | 0.00 | 89 | 1014.1 |
| 20260505013521 | 51 | 330 | 3.0 | 4.0 | 0.00 | 0.00 | 0.00 | 89 | 1014.1 |
| 20260505012557 | 51 | 327 | 1.0 | 3.0 | 0.00 | 0.00 | 0.00 | 88 | 1014.2 |
| 20260505011533 | 52 | 0.0 | 0.0 | 0.00 | 0.00 | 0.00 | 87 | 1014.2 | |
| 20260505010529 | 52 | 24 | 1.0 | 3.0 | 0.00 | 0.00 | 0.00 | 87 | 1014.1 |
| 20260505005605 | 51 | 35 | 1.0 | 3.0 | 0.00 | 0.00 | 0.00 | 87 | 1014.3 |
| 20260505004603 | 52 | 26 | 1.0 | 2.0 | 0.00 | 0.00 | 0.00 | 87 | 1014.3 |
| 20260505003516 | 52 | 36 | 1.0 | 3.0 | 0.00 | 0.00 | 0.00 | 87 | 1014.4 |
| 20260505002612 | 52 | 39 | 2.0 | 3.0 | 0.00 | 0.00 | 0.00 | 86 | 1014.4 |
| 20260505001528 | 52 | 10 | 2.0 | 4.0 | 0.00 | 0.00 | 0.00 | 86 | 1014.5 |
| 20260505000524 | 52 | 23 | 3.0 | 6.0 | 0.00 | 0.00 | 0.00 | 86 | 1014.5 |
| 20260504235520 | 53 | 9 | 3.0 | 4.0 | 0.00 | 0.00 | 0.00 | 85 | 1014.6 |
| 20260504234516 | 53 | 28 | 4.0 | 7.0 | 0.00 | 0.00 | 0.00 | 85 | 1014.6 |
| 20260504233532 | 53 | 5 | 3.0 | 7.0 | 0.00 | 0.00 | 0.00 | 85 | 1014.6 |
| 20260504232528 | 53 | 9 | 2.0 | 4.0 | 0.00 | 0.00 | 0.00 | 84 | 1014.6 |
| 20260504231525 | 53 | 9 | 3.0 | 6.0 | 0.00 | 0.00 | 0.00 | 84 | 1014.6 |
| 20260504230520 | 53 | 18 | 3.0 | 6.0 | 0.00 | 0.00 | 0.00 | 84 | 1014.5 |
| 20260504225536 | 53 | 10 | 3.0 | 7.0 | 0.00 | 0.00 | 0.00 | 84 | 1014.6 |
| 20260504224532 | 54 | 36 | 3.0 | 6.0 | 0.00 | 0.00 | 0.00 | 83 | 1014.6 |
| 20260504223528 | 54 | 23 | 3.0 | 7.0 | 0.00 | 0.00 | 0.00 | 83 | 1014.7 |
| 20260504222524 | 54 | 21 | 3.0 | 7.0 | 0.00 | 0.00 | 0.00 | 83 | 1014.7 |
| 20260504221519 | 54 | 20 | 3.0 | 6.0 | 0.00 | 0.00 | 0.00 | 83 | 1014.9 |
| 20260504220535 | 54 | 2 | 2.0 | 4.0 | 0.00 | 0.00 | 0.00 | 83 | 1014.9 |
| 20260504215531 | 54 | 18 | 3.0 | 7.0 | 0.00 | 0.00 | 0.00 | 84 | 1014.9 |
| 20260504214527 | 54 | 13 | 2.0 | 4.0 | 0.00 | 0.00 | 0.00 | 84 | 1014.9 |
| 20260504213523 | 54 | 13 | 1.0 | 3.0 | 0.00 | 0.00 | 0.00 | 84 | 1015.0 |
| 20260504212517 | 54 | 13 | 2.0 | 4.0 | 0.00 | 0.00 | 0.00 | 84 | 1014.9 |
| 20260504211533 | 54 | 31 | 3.0 | 4.0 | 0.00 | 0.00 | 0.00 | 84 | 1015.0 |
| 20260504210609 | 54 | 23 | 2.0 | 3.0 | 0.00 | 0.00 | 0.00 | 84 | 1014.9 |
| 20260504205524 | 55 | 355 | 2.0 | 4.0 | 0.00 | 0.00 | 0.00 | 84 | 1014.8 |
| 20260504204518 | 55 | 18 | 1.0 | 3.0 | 0.00 | 0.00 | 0.00 | 83 | 1014.9 |
| 20260504203533 | 54 | 21 | 2.0 | 3.0 | 0.00 | 0.00 | 0.00 | 84 | 1014.8 |
| 20260504202528 | 54 | 36 | 2.0 | 4.0 | 0.00 | 0.00 | 0.00 | 84 | 1014.8 |
| 20260504201524 | 54 | 32 | 2.0 | 3.0 | 0.00 | 0.00 | 0.00 | 83 | 1014.7 |
| 20260504200518 | 55 | 26 | 2.0 | 3.0 | 0.00 | 0.00 | 0.00 | 83 | 1014.7 |
| 20260504195534 | 55 | 30 | 2.0 | 3.0 | 0.00 | 0.00 | 0.00 | 82 | 1014.6 |
| 20260504194529 | 55 | 29 | 3.0 | 6.0 | 0.00 | 0.00 | 0.00 | 82 | 1014.6 |
| 20260504193524 | 55 | 20 | 2.0 | 6.0 | 0.00 | 0.00 | 0.00 | 81 | 1014.5 |
| 20260504192519 | 56 | 344 | 2.0 | 4.0 | 0.00 | 0.00 | 0.00 | 81 | 1014.4 |
| 20260504191534 | 56 | 17 | 2.0 | 4.0 | 0.00 | 0.00 | 0.00 | 80 | 1014.4 |
| 20260504190530 | 56 | 21 | 3.0 | 6.0 | 0.00 | 0.00 | 0.00 | 80 | 1014.3 |
| 20260504185525 | 56 | 15 | 3.0 | 6.0 | 0.00 | 0.00 | 0.00 | 79 | 1014.3 |
| 20260504184601 | 56 | 30 | 3.0 | 4.0 | 0.00 | 0.00 | 0.00 | 79 | 1014.2 |
| 20260504183516 | 56 | 32 | 4.0 | 7.0 | 0.00 | 0.00 | 0.00 | 79 | 1014.2 |
| 20260504182612 | 57 | 41 | 5.0 | 9.0 | 0.00 | 0.00 | 0.00 | 79 | 1014.2 |
| 20260504181606 | 57 | 42 | 6.0 | 10.0 | 0.00 | 0.00 | 0.00 | 78 | 1014.1 |
| 20260504180522 | 57 | 47 | 3.0 | 7.0 | 0.00 | 0.00 | 0.00 | 78 | 1014.1 |
| 20260504175517 | 57 | 48 | 5.0 | 8.0 | 0.00 | 0.00 | 0.00 | 78 | 1014.1 |
| 20260504174532 | 57 | 43 | 3.0 | 6.0 | 0.00 | 0.00 | 0.00 | 78 | 1014.1 |
| 20260504173527 | 57 | 31 | 4.0 | 6.0 | 0.00 | 0.00 | 0.00 | 77 | 1014.0 |
| 20260504172522 | 58 | 33 | 4.0 | 8.0 | 0.00 | 0.00 | 0.00 | 76 | 1013.9 |
| 20260504171536 | 58 | 28 | 4.0 | 8.0 | 0.00 | 0.00 | 0.00 | 76 | 1013.9 |